LTCL Airport Information

Runway Information
Runway 06 Length 5905 ft width 98 ft
Elevation 1946 ft Threshold 0 ft Heading 68
Runway 24 Length 5905 ft Width 98 ft
Elevation 2000 ft Threshold 0 ft Heading 248
Airport Frequencies
Type TWR Name TWR Frequency 132.05 MHZ
Airport Navaids
Type VOR-DME Name Siirt Frequency 114300 KHZ
Type NDB Name Siirt Frequency 409 KHZ
Airport Weather Information & NOTAM
ADDS - METARS form results

(2321 UTC 16 February 2019)
Data provider http://aviationweather.gov/metar/data/
 
Forecast for: LTCL (SIIRT AIRPORT , TR)
Text: TAF LTCL 161340Z 1615/1624 VRB02KT 9999 SCT040
Forecast period: 1500 UTC 16 February 2019 to 0000 UTC 17 February 2019
Forecast type: FROM: standard forecast or significant change
Winds: variable direction winds at 2 MPH (2 knots; 1.0 m/s)
Visibility: 6 or more miles 10+ km)
Ceiling: at least 12,000 feet AGL
Clouds: scattered clouds at 4000 feet AGL
Weather: no significant weather forecast for this period